Hourly Weather Gohana

Today, 15 May, Saturday

Time Temperature Precipitation Wind Pressure Humidity
00:00 +32°C° 0 mm 1 mps 732 mmHg 36%
01:00 +32°C° 0 mm 1 mps 732 mmHg 37%
02:00 +30°C° 0 mm 0 mps 732 mmHg 39%
03:00 +31°C° 0 mm 1 mps 732 mmHg 39%
04:00 +31°C° 0 mm 1 mps 732 mmHg 39%
05:00 +31°C° 0 mm 1 mps 733 mmHg 40%
06:00 +32°C° 0 mm 2 mps 733 mmHg 36%
07:00 +34°C° 0 mm 2 mps 734 mmHg 32%
08:00 +36°C° 0 mm 2 mps 734 mmHg 28%
09:00 +37°C° 0 mm 2 mps 734 mmHg 25%
10:00 +39°C° 0 mm 1 mps 734 mmHg 23%
11:00 +40°C° 0 mm 1 mps 734 mmHg 20%
12:00 +41°C° 0 mm 2 mps 733 mmHg 19%
13:00 +41°C° 0 mm 2 mps 733 mmHg 18%
14:00 +42°C° 0 mm 2 mps 732 mmHg 17%
15:00 +40°C° 0.4 mm 3 mps 732 mmHg 20%
16:00 +39°C° 0.4 mm 5 mps 732 mmHg 22%
17:00 +36°C° 0.4 mm 6 mps 732 mmHg 25%
18:00 +36°C° 0 mm 4 mps 732 mmHg 24%
19:00 +36°C° 0 mm 2 mps 732 mmHg 24%
20:00 +35°C° 0 mm 1 mps 733 mmHg 23%
21:00 +34°C° 0 mm 1 mps 733 mmHg 24%
22:00 +34°C° 0 mm 1 mps 733 mmHg 24%
23:00 +34°C° 0 mm 1 mps 734 mmHg 25%

Tomorrow, 16 May, Sunday

Time Temperature Precipitation Wind Pressure Humidity
00:00 +33°C° 0 mm 1 mps 733 mmHg 25%
01:00 +33°C° 0 mm 1 mps 733 mmHg 26%
02:00 +32°C° 0 mm 2 mps 733 mmHg 26%
03:00 +32°C° 0 mm 2 mps 733 mmHg 28%
04:00 +31°C° 0 mm 1 mps 733 mmHg 30%
05:00 +31°C° 0 mm 1 mps 733 mmHg 31%
06:00 +32°C° 0 mm 1 mps 734 mmHg 29%
07:00 +34°C° 0 mm 1 mps 734 mmHg 26%
08:00 +37°C° 0 mm 2 mps 735 mmHg 24%
09:00 +39°C° 0 mm 1 mps 735 mmHg 21%
10:00 +40°C° 0 mm 1 mps 735 mmHg 18%
11:00 +42°C° 0 mm 1 mps 735 mmHg 16%
12:00 +43°C° 0 mm 1 mps 734 mmHg 14%
13:00 +43°C° 0 mm 2 mps 734 mmHg 13%
14:00 +45°C° 0 mm 3 mps 733 mmHg 12%
15:00 +45°C° 0 mm 3 mps 733 mmHg 12%
16:00 +45°C° 0 mm 3 mps 732 mmHg 12%
17:00 +44°C° 0 mm 4 mps 732 mmHg 12%
18:00 +43°C° 0 mm 3 mps 732 mmHg 13%
19:00 +42°C° 0 mm 3 mps 732 mmHg 14%
20:00 +40°C° 0 mm 2 mps 733 mmHg 15%
21:00 +39°C° 0 mm 3 mps 733 mmHg 16%
22:00 +38°C° 0 mm 3 mps 733 mmHg 17%
23:00 +38°C° 0 mm 3 mps 733 mmHg 18%

Day after tomorrow, 17 May, Monday

Time Temperature Precipitation Wind Pressure Humidity
00:00 +37°C° 0 mm 3 mps 733 mmHg 18%
01:00 +37°C° 0 mm 3 mps 733 mmHg 19%
02:00 +36°C° 0 mm 3 mps 733 mmHg 19%
03:00 +35°C° 0 mm 3 mps 733 mmHg 20%
04:00 +35°C° 0 mm 3 mps 733 mmHg 21%
05:00 +34°C° 0 mm 3 mps 733 mmHg 22%
06:00 +36°C° 0 mm 3 mps 733 mmHg 19%
07:00 +38°C° 0 mm 3 mps 734 mmHg 17%
08:00 +40°C° 0 mm 3 mps 734 mmHg 14%
09:00 +42°C° 0 mm 4 mps 734 mmHg 13%
10:00 +44°C° 0 mm 4 mps 734 mmHg 11%
11:00 +45°C° 0 mm 4 mps 734 mmHg 9%
12:00 +47°C° 0 mm 5 mps 734 mmHg 9%
13:00 +47°C° 0 mm 5 mps 733 mmHg 8%
14:00 +47°C° 0 mm 5 mps 732 mmHg 8%
15:00 +47°C° 0 mm 5 mps 732 mmHg 8%
16:00 +47°C° 0 mm 4 mps 732 mmHg 8%
17:00 +45°C° 0 mm 3 mps 731 mmHg 8%
18:00 +44°C° 0 mm 3 mps 732 mmHg 9%
19:00 +43°C° 0 mm 3 mps 732 mmHg 11%
20:00 +42°C° 0 mm 3 mps 732 mmHg 12%
21:00 +42°C° 0 mm 3 mps 732 mmHg 13%
22:00 +41°C° 0 mm 4 mps 732 mmHg 15%
23:00 +40°C° 0 mm 4 mps 733 mmHg 17%

18 May, Tuesday

Time Temperature Precipitation Wind Pressure Humidity
00:00 +38°C° 0 mm 4 mps 732 mmHg 20%
01:00 +39°C° 0 mm 5 mps 732 mmHg 24%
02:00 +37°C° 0 mm 5 mps 732 mmHg 28%
03:00 +37°C° 0 mm 5 mps 732 mmHg 28%
04:00 +36°C° 0 mm 5 mps 732 mmHg 29%
05:00 +36°C° 0 mm 5 mps 733 mmHg 29%
06:00 +38°C° 0 mm 6 mps 733 mmHg 28%
07:00 +39°C° 0 mm 6 mps 733 mmHg 26%
08:00 +40°C° 0 mm 7 mps 734 mmHg 24%
09:00 +41°C° 0 mm 7 mps 734 mmHg 21%
10:00 +44°C° 0 mm 6 mps 733 mmHg 19%
11:00 +45°C° 0 mm 6 mps 733 mmHg 17%
12:00 +45°C° 0 mm 5 mps 733 mmHg 15%
13:00 +46°C° 0 mm 5 mps 732 mmHg 14%
14:00 +45°C° 0 mm 4 mps 732 mmHg 12%
15:00 +46°C° 0 mm 5 mps 732 mmHg 13%
16:00 +46°C° 0 mm 5 mps 731 mmHg 13%
17:00 +45°C° 0 mm 5 mps 731 mmHg 14%
18:00 +42°C° 0 mm 6 mps 732 mmHg 17%
19:00 +41°C° 0 mm 6 mps 732 mmHg 20%
20:00 +39°C° 0 mm 6 mps 732 mmHg 24%
21:00 +38°C° 0 mm 6 mps 733 mmHg 25%
22:00 +36°C° 0 mm 6 mps 733 mmHg 27%
23:00 +36°C° 0 mm 6 mps 733 mmHg 28%

19 May, Wednesday

Time Temperature Precipitation Wind Pressure Humidity
00:00 +35°C° 0 mm 6 mps 733 mmHg 28%
01:00 +35°C° 0 mm 5 mps 733 mmHg 29%
02:00 +35°C° 0 mm 4 mps 732 mmHg 29%
03:00 +34°C° 0 mm 4 mps 733 mmHg 30%
04:00 +33°C° 0 mm 3 mps 733 mmHg 31%
05:00 +32°C° 0 mm 2 mps 733 mmHg 32%
06:00 +34°C° 0 mm 4 mps 733 mmHg 30%
07:00 +36°C° 0 mm 5 mps 734 mmHg 27%
08:00 +38°C° 0 mm 6 mps 734 mmHg 25%
09:00 +40°C° 0 mm 6 mps 734 mmHg 23%
10:00 +41°C° 0 mm 5 mps 733 mmHg 21%
11:00 +43°C° 0 mm 5 mps 733 mmHg 19%
12:00 +45°C° 0 mm 5 mps 732 mmHg 18%
13:00 +45°C° 0 mm 5 mps 732 mmHg 16%
14:00 +46°C° 0 mm 5 mps 731 mmHg 15%
15:00 +46°C° 0 mm 5 mps 731 mmHg 15%
16:00 +46°C° 0 mm 5 mps 730 mmHg 14%
17:00 +45°C° 0 mm 6 mps 730 mmHg 14%
18:00 +43°C° 0 mm 5 mps 730 mmHg 15%
19:00 +42°C° 0 mm 4 mps 730 mmHg 16%
20:00 +40°C° 0 mm 3 mps 730 mmHg 16%
21:00 +40°C° 0 mm 3 mps 731 mmHg 17%
22:00 +40°C° 0 mm 4 mps 731 mmHg 18%
23:00 +40°C° 0 mm 4 mps 731 mmHg 19%

20 May, Thursday

Time Temperature Precipitation Wind Pressure Humidity
00:00 +39°C° 0 mm 5 mps 730 mmHg 24%
01:00 +37°C° 0 mm 5 mps 730 mmHg 30%
02:00 +36°C° 0 mm 6 mps 730 mmHg 36%
03:00 +36°C° 0 mm 6 mps 730 mmHg 35%
04:00 +36°C° 0 mm 6 mps 731 mmHg 33%
05:00 +36°C° 0 mm 6 mps 731 mmHg 32%
06:00 +35°C° 0 mm 6 mps 732 mmHg 36%
07:00 +33°C° 0 mm 6 mps 733 mmHg 40%
08:00 +32°C° 0 mm 6 mps 733 mmHg 44%
09:00 +33°C° 0.1 mm 6 mps 733 mmHg 41%
10:00 +34°C° 0.1 mm 6 mps 733 mmHg 38%
11:00 +35°C° 0.1 mm 6 mps 733 mmHg 35%
12:00 +36°C° 0.1 mm 5 mps 733 mmHg 32%
13:00 +37°C° 0.1 mm 4 mps 733 mmHg 30%
14:00 +38°C° 0.1 mm 2 mps 732 mmHg 27%
15:00 +38°C° 0.1 mm 2 mps 732 mmHg 27%
16:00 +39°C° 0.1 mm 2 mps 731 mmHg 27%
17:00 +39°C° 0.1 mm 2 mps 731 mmHg 27%
18:00 +37°C° 0.2 mm 3 mps 731 mmHg 31%
19:00 +36°C° 0.2 mm 3 mps 731 mmHg 35%
20:00 +34°C° 0.2 mm 4 mps 732 mmHg 39%
21:00 +34°C° 0.2 mm 4 mps 731 mmHg 42%
22:00 +33°C° 0.2 mm 3 mps 731 mmHg 44%
23:00 +31°C° 0.2 mm 3 mps 731 mmHg 47%
Show more